| time (UTC) | temp F | wind direction | speed MPH | gust MPH | rain 1hr in | rain 24hr in | rain mn in | humidity % | barometer mb |
| 20260506231518 | 51 | 0.0 | 0.0 | 0.01 | 0.92 | 0.75 | 84 | 1010.0 | |
| 20260506230518 | 51 | 0.0 | 0.0 | 0.00 | 0.92 | 0.74 | 84 | 1009.8 | |
| 20260506225518 | 51 | 0.0 | 0.0 | 0.00 | 0.93 | 0.74 | 83 | 1009.7 | |
| 20260506224519 | 51 | 0.0 | 0.0 | 0.00 | 0.94 | 0.74 | 83 | 1009.6 | |
| 20260506223518 | 51 | 0.0 | 0.0 | 0.00 | 0.95 | 0.74 | 83 | 1009.6 | |
| 20260506222518 | 51 | 0.0 | 0.0 | 0.00 | 0.97 | 0.74 | 83 | 1009.5 | |
| 20260506221519 | 51 | 0.0 | 0.0 | 0.00 | 0.97 | 0.74 | 83 | 1009.5 | |
| 20260506220518 | 51 | 0.0 | 0.0 | 0.00 | 0.97 | 0.74 | 84 | 1009.5 | |
| 20260506215519 | 51 | 0.0 | 0.0 | 0.00 | 0.97 | 0.74 | 84 | 1009.4 | |
| 20260506214519 | 51 | 0.0 | 0.0 | 0.00 | 0.97 | 0.74 | 84 | 1009.2 | |
| 20260506213518 | 52 | 0.0 | 0.0 | 0.00 | 0.97 | 0.74 | 84 | 1009.5 | |
| 20260506213450 | 52 | 0.0 | 0.0 | 0.00 | 0.97 | 0.74 | 84 | 1009.4 | |
| 20260506172108 | 47 | 0.0 | 2.0 | 0.00 | 0.97 | 0.74 | 92 | 1009.1 | |
| 20260506171541 | 47 | 0.0 | 2.0 | 0.00 | 0.97 | 0.74 | 93 | 1008.7 | |
| 20260506170522 | 47 | 0.0 | 3.0 | 0.00 | 0.97 | 0.74 | 93 | 1008.8 | |
| 20260506165519 | 47 | 0.0 | 2.0 | 0.00 | 0.97 | 0.74 | 93 | 1008.8 | |
| 20260506164522 | 47 | 45 | 1.0 | 4.0 | 0.00 | 0.97 | 0.74 | 93 | 1008.8 |
| 20260506163522 | 47 | 45 | 1.0 | 3.0 | 0.00 | 0.97 | 0.74 | 93 | 1008.9 |
| 20260506162521 | 47 | 0.0 | 3.0 | 0.00 | 0.97 | 0.74 | 94 | 1008.7 | |
| 20260506161522 | 47 | 0.0 | 5.0 | 0.00 | 0.97 | 0.74 | 94 | 1008.8 | |
| 20260506160522 | 47 | 0.0 | 1.0 | 0.00 | 0.97 | 0.74 | 94 | 1008.6 | |
| 20260506155520 | 47 | 0.0 | 2.0 | 0.00 | 0.97 | 0.74 | 94 | 1008.9 | |
| 20260506154521 | 47 | 0.0 | 2.0 | 0.00 | 0.97 | 0.74 | 94 | 1008.9 | |
| 20260506153520 | 47 | 0.0 | 4.0 | 0.00 | 0.97 | 0.74 | 94 | 1008.8 | |
| 20260506152520 | 47 | 45 | 1.0 | 5.0 | 0.00 | 0.97 | 0.74 | 94 | 1008.6 |
| 20260506151521 | 47 | 0.0 | 2.0 | 0.00 | 0.97 | 0.74 | 94 | 1008.6 | |
| 20260506150520 | 47 | 0.0 | 2.0 | 0.00 | 0.97 | 0.74 | 94 | 1008.7 | |
| 20260506145522 | 47 | 0.0 | 0.0 | 0.00 | 0.97 | 0.74 | 94 | 1008.6 | |
| 20260506144521 | 46 | 0.0 | 1.0 | 0.01 | 0.97 | 0.74 | 94 | 1008.4 | |
| 20260506143614 | 46 | 0.0 | 1.0 | 0.01 | 0.97 | 0.74 | 94 | 1008.3 | |
| 20260506142542 | 46 | 0.0 | 2.0 | 0.01 | 0.97 | 0.74 | 94 | 1008.3 | |
| 20260506141521 | 46 | 0.0 | 1.0 | 0.02 | 0.97 | 0.74 | 94 | 1008.2 | |
| 20260506140521 | 46 | 0.0 | 1.0 | 0.02 | 0.97 | 0.74 | 94 | 1008.1 | |
| 20260506135521 | 46 | 0.0 | 2.0 | 0.02 | 0.97 | 0.74 | 94 | 1008.3 | |
| 20260506134521 | 46 | 0.0 | 1.0 | 0.01 | 0.96 | 0.73 | 94 | 1008.3 | |
| 20260506133521 | 46 | 0.0 | 3.0 | 0.02 | 0.96 | 0.73 | 94 | 1008.3 | |
| 20260506132520 | 46 | 23 | 1.0 | 5.0 | 0.02 | 0.96 | 0.73 | 94 | 1008.1 |
| 20260506131521 | 45 | 0.0 | 2.0 | 0.01 | 0.95 | 0.72 | 94 | 1008.0 | |
| 20260506130540 | 45 | 0.0 | 0.0 | 0.02 | 0.95 | 0.72 | 94 | 1008.0 | |
| 20260506125540 | 45 | 0.0 | 0.0 | 0.03 | 0.95 | 0.72 | 94 | 1008.0 | |
| 20260506124520 | 45 | 0.0 | 0.0 | 0.04 | 0.95 | 0.72 | 94 | 1008.0 | |
| 20260506123520 | 45 | 0.0 | 0.0 | 0.03 | 0.94 | 0.71 | 94 | 1008.2 | |
| 20260506122520 | 45 | 0.0 | 0.0 | 0.03 | 0.94 | 0.71 | 94 | 1008.1 | |
| 20260506121520 | 45 | 0.0 | 2.0 | 0.04 | 0.94 | 0.71 | 94 | 1008.1 | |
| 20260506120520 | 45 | 0.0 | 1.0 | 0.03 | 0.93 | 0.70 | 94 | 1008.2 | |
| 20260506115520 | 45 | 0.0 | 1.0 | 0.03 | 0.92 | 0.69 | 94 | 1008.3 | |
| 20260506114520 | 45 | 0.0 | 2.0 | 0.03 | 0.91 | 0.68 | 94 | 1008.2 | |
| 20260506113539 | 45 | 0.0 | 2.0 | 0.04 | 0.91 | 0.68 | 94 | 1008.1 | |
| 20260506112519 | 46 | 0.0 | 4.0 | 0.05 | 0.91 | 0.68 | 93 | 1007.9 | |
| 20260506111519 | 46 | 0.0 | 2.0 | 0.05 | 0.90 | 0.67 | 93 | 1007.8 | |
| 20260506110600 | 46 | 0.0 | 3.0 | 0.06 | 0.90 | 0.67 | 94 | 1008.0 | |
| 20260506105519 | 46 | 90 | 1.0 | 4.0 | 0.06 | 0.89 | 0.66 | 93 | 1007.9 |
| 20260506104541 | 46 | 0.0 | 1.0 | 0.07 | 0.88 | 0.65 | 93 | 1008.2 | |
| 20260506103519 | 46 | 90 | 1.0 | 4.0 | 0.07 | 0.87 | 0.64 | 93 | 1008.2 |
| 20260506102540 | 46 | 0.0 | 2.0 | 0.07 | 0.86 | 0.63 | 93 | 1008.3 | |
| 20260506101519 | 46 | 0.0 | 0.0 | 0.07 | 0.85 | 0.62 | 93 | 1008.3 | |
| 20260506100520 | 46 | 0.0 | 0.0 | 0.07 | 0.84 | 0.61 | 93 | 1008.5 | |
| 20260506095520 | 46 | 0.0 | 3.0 | 0.06 | 0.83 | 0.60 | 93 | 1008.2 | |
| 20260506094519 | 46 | 0.0 | 0.0 | 0.05 | 0.81 | 0.58 | 93 | 1008.4 | |
| 20260506094126 | 46 | 0.0 | 1.0 | 0.04 | 0.80 | 0.57 | 93 | 1008.3 | |
| 20260506093846 | 47 | 0.0 | 0.0 | 0.05 | 0.80 | 0.57 | 93 | 1008.3 | |
| 20260506092519 | 47 | 0.0 | 1.0 | 0.05 | 0.79 | 0.56 | 93 | 1008.1 | |
| 20260506091519 | 47 | 0.0 | 1.0 | 0.05 | 0.78 | 0.55 | 93 | 1008.0 | |
| 20260506090520 | 47 | 0.0 | 3.0 | 0.06 | 0.77 | 0.54 | 93 | 1007.7 | |
| 20260506085520 | 47 | 68 | 1.0 | 5.0 | 0.07 | 0.77 | 0.54 | 93 | 1008.0 |
| 20260506084519 | 47 | 0.0 | 5.0 | 0.09 | 0.76 | 0.53 | 93 | 1008.0 | |
| 20260506083539 | 47 | 0.0 | 2.0 | 0.10 | 0.75 | 0.52 | 93 | 1008.6 | |
| 20260506082520 | 47 | 0.0 | 4.0 | 0.12 | 0.74 | 0.51 | 93 | 1008.4 | |
| 20260506081519 | 47 | 0.0 | 3.0 | 0.13 | 0.73 | 0.50 | 93 | 1008.0 | |
| 20260506080519 | 47 | 0.0 | 2.0 | 0.13 | 0.71 | 0.48 | 93 | 1008.3 | |
| 20260506073520 | 48 | 0.0 | 2.0 | 0.15 | 0.65 | 0.42 | 92 | 1008.4 | |
| 20260506072519 | 48 | 0.0 | 2.0 | 0.15 | 0.62 | 0.39 | 92 | 1008.3 | |
| 20260506071540 | 48 | 0.0 | 2.0 | 0.15 | 0.60 | 0.37 | 92 | 1008.0 | |
| 20260506070520 | 48 | 90 | 1.0 | 7.0 | 0.18 | 0.59 | 0.35 | 92 | 1008.1 |
| 20260506061519 | 49 | 0.0 | 1.0 | 0.13 | 0.46 | 0.22 | 92 | 1008.5 | |
| 20260506060519 | 49 | 0.0 | 5.0 | 0.10 | 0.41 | 0.17 | 92 | 1008.8 | |
| 20260506050519 | 49 | 0.0 | 1.0 | 0.06 | 0.31 | 0.07 | 92 | 1009.1 | |
| 20260506044520 | 49 | 0.0 | 1.0 | 0.05 | 0.28 | 0.04 | 91 | 1009.0 | |
| 20260506043519 | 49 | 0.0 | 1.0 | 0.05 | 0.27 | 0.03 | 91 | 1009.0 | |
| 20260506042519 | 49 | 0.0 | 1.0 | 0.05 | 0.26 | 0.02 | 91 | 1008.7 | |
| 20260506041519 | 49 | 0.0 | 0.0 | 0.05 | 0.26 | 0.02 | 90 | 1008.6 | |
| 20260506040520 | 49 | 0.0 | 2.0 | 0.04 | 0.25 | 0.01 | 90 | 1008.7 | |
| 20260506035518 | 49 | 0.0 | 0.0 | 0.03 | 0.24 | 0.24 | 90 | 1009.0 | |
| 20260506034538 | 49 | 0.0 | 0.0 | 0.03 | 0.23 | 0.23 | 90 | 1009.1 | |
| 20260506033518 | 49 | 0.0 | 0.0 | 0.02 | 0.22 | 0.22 | 90 | 1009.3 | |
| 20260506032518 | 49 | 0.0 | 0.0 | 0.01 | 0.21 | 0.21 | 89 | 1009.5 | |
| 20260506031538 | 49 | 0.0 | 0.0 | 0.02 | 0.21 | 0.21 | 89 | 1009.0 | |
| 20260506030519 | 49 | 0.0 | 0.0 | 0.02 | 0.21 | 0.21 | 89 | 1009.2 | |
| 20260506025518 | 50 | 0.0 | 0.0 | 0.03 | 0.21 | 0.21 | 88 | 1009.3 | |
| 20260506024518 | 50 | 0.0 | 1.0 | 0.03 | 0.20 | 0.20 | 88 | 1009.2 | |
| 20260506023518 | 50 | 0.0 | 0.0 | 0.05 | 0.20 | 0.20 | 87 | 1009.3 | |
| 20260506022518 | 50 | 0.0 | 0.0 | 0.06 | 0.20 | 0.20 | 86 | 1009.4 | |
| 20260506021518 | 50 | 0.0 | 0.0 | 0.05 | 0.19 | 0.19 | 86 | 1009.6 | |
| 20260506020538 | 50 | 0.0 | 3.0 | 0.05 | 0.19 | 0.19 | 85 | 1009.6 | |
| 20260506015518 | 50 | 0.0 | 0.0 | 0.05 | 0.18 | 0.18 | 85 | 1009.6 | |
| 20260506014519 | 50 | 0.0 | 2.0 | 0.04 | 0.17 | 0.17 | 85 | 1009.4 | |
| 20260506013518 | 50 | 0.0 | 0.0 | 0.03 | 0.15 | 0.15 | 83 | 1009.5 | |
| 20260506012538 | 50 | 0.0 | 0.0 | 0.02 | 0.14 | 0.14 | 82 | 1009.5 | |
| 20260506011518 | 50 | 0.0 | 0.0 | 0.02 | 0.14 | 0.14 | 83 | 1009.3 | |
| 20260506010518 | 50 | 0.0 | 0.0 | 0.03 | 0.14 | 0.14 | 82 | 1008.9 | |
| 20260506005518 | 50 | 0.0 | 0.0 | 0.02 | 0.13 | 0.13 | 82 | 1008.8 | |
| 20260506004538 | 51 | 0.0 | 0.0 | 0.03 | 0.13 | 0.13 | 81 | 1008.5 | |
| 20260506003518 | 51 | 0.0 | 0.0 | 0.02 | 0.12 | 0.12 | 81 | 1008.9 | |
| 20260506002518 | 51 | 0.0 | 0.0 | 0.03 | 0.12 | 0.12 | 78 | 1008.4 | |
| 20260506001518 | 51 | 0.0 | 0.0 | 0.05 | 0.12 | 0.12 | 79 | 1008.3 | |
| 20260506000518 | 52 | 0.0 | 0.0 | 0.05 | 0.11 | 0.11 | 78 | 1008.3 | |
| 20260505235518 | 52 | 0.0 | 0.0 | 0.06 | 0.11 | 0.11 | 78 | 1008.4 | |
| 20260505234518 | 52 | 0.0 | 0.0 | 0.06 | 0.10 | 0.10 | 77 | 1008.4 | |
| 20260505233518 | 53 | 0.0 | 0.0 | 0.07 | 0.10 | 0.10 | 75 | 1008.4 | |
| 20260505232518 | 54 | 0.0 | 0.0 | 0.08 | 0.09 | 0.09 | 75 | 1008.6 |